Retour au catalogue

STARLINK-34351

ActifCommunicationsVLEO
NORAD 64387·PAYLOAD·🇺🇸 United States

Lancé Jun 13, 2025 depuis Cape Canaveral Space Force Station

Loading…

Prochains Passages (prochaines 24 heures)

TLE

FraisSource: CelesTrak SupGP

Époque: Sep 15, 2026, 02:31 UTC

1 64387C 25127T   26258.10534722  .00019922  00000+0  72173-3 0  2585
2 64387  43.0026 189.7160 0001255 271.4598 308.0316 15.27561664    11

Suivez STARLINK-34351 en temps réel avec AllMySat

Download on the App Store